| time (UTC) | temp F | wind direction | speed knots | gust knots | rain 1hr in | rain 24hr in | rain mn in | humidity % | barometer mb |
| 20260503215017 | 94 | 223 | 4.3 | 11.3 | 0.00 | 0.00 | 0.00 | 27 | 1011.6 |
| 20260503214017 | 94 | 214 | 3.5 | 9.6 | 0.00 | 0.00 | 0.00 | 26 | 1011.5 |
| 20260503213017 | 94 | 204 | 5.2 | 13.0 | 0.00 | 0.00 | 0.00 | 24 | 1011.6 |
| 20260503212017 | 93 | 213 | 3.5 | 10.4 | 0.00 | 0.00 | 0.00 | 24 | 1011.6 |
| 20260503211017 | 93 | 226 | 6.1 | 13.9 | 0.00 | 0.00 | 0.00 | 25 | 1011.6 |
| 20260503210017 | 93 | 201 | 4.3 | 11.3 | 0.00 | 0.00 | 0.00 | 25 | 1011.7 |
| 20260503205017 | 93 | 210 | 6.1 | 13.0 | 0.00 | 0.00 | 0.00 | 25 | 1011.8 |
| 20260503204017 | 94 | 221 | 7.0 | 14.8 | 0.00 | 0.00 | 0.00 | 24 | 1011.8 |
| 20260503203017 | 94 | 223 | 6.1 | 13.0 | 0.00 | 0.00 | 0.00 | 26 | 1011.9 |
| 20260503202017 | 94 | 215 | 5.2 | 14.8 | 0.00 | 0.00 | 0.00 | 27 | 1011.9 |
| 20260503201039 | 95 | 211 | 4.3 | 10.4 | 0.00 | 0.00 | 0.00 | 27 | 1011.8 |
| 20260503200017 | 95 | 228 | 6.1 | 14.8 | 0.00 | 0.00 | 0.00 | 28 | 1011.8 |
| 20260503195018 | 95 | 219 | 4.3 | 10.4 | 0.00 | 0.00 | 0.00 | 26 | 1011.9 |
| 20260503194037 | 95 | 229 | 4.3 | 11.3 | 0.00 | 0.00 | 0.00 | 27 | 1011.9 |
| 20260503193017 | 95 | 228 | 4.3 | 11.3 | 0.00 | 0.00 | 0.00 | 27 | 1012.0 |
| 20260503192018 | 94 | 193 | 4.3 | 11.3 | 0.00 | 0.00 | 0.00 | 27 | 1012.2 |
| 20260503191037 | 94 | 201 | 4.3 | 11.3 | 0.00 | 0.00 | 0.00 | 28 | 1012.2 |
| 20260503190017 | 94 | 201 | 2.6 | 7.8 | 0.00 | 0.00 | 0.00 | 28 | 1012.2 |
| 20260503185018 | 94 | 197 | 3.5 | 7.0 | 0.00 | 0.00 | 0.00 | 27 | 1012.3 |
| 20260503184017 | 94 | 179 | 4.3 | 9.6 | 0.00 | 0.00 | 0.00 | 27 | 1012.4 |
| 20260503183017 | 94 | 175 | 2.6 | 8.7 | 0.00 | 0.00 | 0.00 | 26 | 1012.5 |
| 20260503182017 | 94 | 160 | 2.6 | 7.8 | 0.00 | 0.00 | 0.00 | 26 | 1012.6 |
| 20260503181017 | 93 | 168 | 2.6 | 6.1 | 0.00 | 0.00 | 0.00 | 26 | 1012.7 |
| 20260503180018 | 94 | 173 | 1.7 | 7.8 | 0.00 | 0.00 | 0.00 | 26 | 1012.8 |
| 20260503175018 | 93 | 201 | 1.7 | 7.0 | 0.00 | 0.00 | 0.00 | 25 | 1012.9 |
| 20260503174017 | 93 | 232 | 1.7 | 6.1 | 0.00 | 0.00 | 0.00 | 25 | 1013.2 |
| 20260503173017 | 92 | 208 | 2.6 | 7.8 | 0.00 | 0.00 | 0.00 | 25 | 1013.3 |
| 20260503172017 | 91 | 207 | 2.6 | 7.0 | 0.00 | 0.00 | 0.00 | 26 | 1013.3 |
| 20260503171017 | 91 | 200 | 3.5 | 6.1 | 0.00 | 0.00 | 0.00 | 26 | 1013.3 |
| 20260503131017 | 71 | 117 | 0.0 | 1.7 | 0.00 | 0.00 | 0.00 | 47 | 1012.2 |
| 20260503081017 | 74 | 0.0 | 1.7 | 0.00 | 0.00 | 0.00 | 49 | 1010.8 | |
| 20260503072017 | 74 | 221 | 0.0 | 1.7 | 0.00 | 0.00 | 0.00 | 53 | 1011.8 |
| 20260503071017 | 75 | 221 | 0.0 | 1.7 | 0.00 | 0.00 | 0.00 | 53 | 1011.7 |
| 20260503055037 | 77 | 242 | 0.0 | 1.7 | 0.00 | 0.00 | 0.00 | 49 | 1011.3 |
| 20260503054017 | 77 | 242 | 0.9 | 1.7 | 0.00 | 0.00 | 0.00 | 49 | 1011.2 |
| 20260503053017 | 77 | 0.0 | 1.7 | 0.00 | 0.00 | 0.00 | 47 | 1011.3 | |
| 20260503052037 | 78 | 0.0 | 1.7 | 0.00 | 0.00 | 0.00 | 46 | 1011.2 | |
| 20260503051017 | 78 | 269 | 0.0 | 1.7 | 0.00 | 0.00 | 0.00 | 43 | 1011.1 |
| 20260503050017 | 78 | 304 | 0.0 | 1.7 | 0.00 | 0.00 | 0.00 | 42 | 1011.1 |
| 20260503045017 | 79 | 304 | 0.0 | 1.7 | 0.00 | 0.00 | 0.00 | 42 | 1011.1 |
| 20260503044017 | 79 | 0.0 | 1.7 | 0.00 | 0.00 | 0.00 | 41 | 1011.2 | |
| 20260503043037 | 79 | 0.0 | 1.7 | 0.00 | 0.00 | 0.00 | 40 | 1011.2 | |
| 20260503042017 | 79 | 0.0 | 1.7 | 0.00 | 0.00 | 0.00 | 39 | 1011.1 | |
| 20260503041037 | 80 | 0.0 | 0.0 | 0.00 | 0.00 | 0.00 | 38 | 1010.9 | |
| 20260503022016 | 84 | 300 | 1.7 | 3.5 | 0.00 | 0.00 | 0.00 | 32 | 1009.9 |
| 20260503021057 | 85 | 301 | 1.7 | 4.3 | 0.00 | 0.00 | 0.00 | 32 | 1009.7 |
| 20260503020017 | 85 | 286 | 1.7 | 5.2 | 0.00 | 0.00 | 0.00 | 31 | 1009.6 |
| 20260503015016 | 86 | 286 | 1.7 | 3.5 | 0.00 | 0.00 | 0.00 | 30 | 1009.3 |
| 20260503014017 | 87 | 243 | 0.9 | 3.5 | 0.00 | 0.00 | 0.00 | 30 | 1009.1 |
| 20260503013016 | 87 | 0.0 | 0.0 | 0.00 | 0.00 | 0.00 | 29 | 1009.0 | |
| 20260503012017 | 88 | 285 | 1.7 | 7.8 | 0.00 | 0.00 | 0.00 | 28 | 1009.1 |
| 20260503011017 | 89 | 263 | 1.7 | 7.0 | 0.00 | 0.00 | 0.00 | 28 | 1008.8 |
| 20260503010017 | 90 | 299 | 4.3 | 8.7 | 0.00 | 0.00 | 0.00 | 28 | 1008.7 |
| 20260503005016 | 90 | 301 | 2.6 | 7.8 | 0.00 | 0.00 | 0.00 | 28 | 1008.5 |
| 20260503004017 | 91 | 279 | 2.6 | 7.0 | 0.00 | 0.00 | 0.00 | 28 | 1008.6 |
| 20260503003017 | 91 | 283 | 2.6 | 7.8 | 0.00 | 0.00 | 0.00 | 28 | 1008.4 |
| 20260503002017 | 92 | 285 | 4.3 | 8.7 | 0.00 | 0.00 | 0.00 | 28 | 1008.4 |
| 20260503001037 | 92 | 297 | 4.3 | 9.6 | 0.00 | 0.00 | 0.00 | 28 | 1008.5 |
| 20260503000017 | 93 | 279 | 3.5 | 9.6 | 0.00 | 0.00 | 0.00 | 28 | 1008.5 |
| 20260502235037 | 93 | 266 | 3.5 | 10.4 | 0.00 | 0.00 | 0.00 | 28 | 1008.3 |
| 20260502234017 | 93 | 270 | 3.5 | 11.3 | 0.00 | 0.00 | 0.00 | 28 | 1008.4 |
| 20260502233016 | 94 | 280 | 3.5 | 10.4 | 0.00 | 0.00 | 0.00 | 27 | 1008.1 |
| 20260502232036 | 94 | 293 | 3.5 | 10.4 | 0.00 | 0.00 | 0.00 | 27 | 1008.2 |
| 20260502231016 | 95 | 295 | 3.5 | 9.6 | 0.00 | 0.00 | 0.00 | 26 | 1008.2 |
| 20260502230017 | 96 | 280 | 2.6 | 9.6 | 0.00 | 0.00 | 0.00 | 26 | 1008.2 |
| 20260502225016 | 96 | 239 | 2.6 | 8.7 | 0.00 | 0.00 | 0.00 | 24 | 1008.2 |
| 20260502224017 | 97 | 236 | 5.2 | 12.2 | 0.00 | 0.00 | 0.00 | 24 | 1008.3 |
| 20260502223037 | 97 | 259 | 4.3 | 10.4 | 0.00 | 0.00 | 0.00 | 24 | 1008.2 |
| 20260502222017 | 97 | 267 | 4.3 | 10.4 | 0.00 | 0.00 | 0.00 | 23 | 1008.4 |
| 20260502221017 | 97 | 257 | 2.6 | 8.7 | 0.00 | 0.00 | 0.00 | 23 | 1008.3 |
| 20260502220016 | 97 | 234 | 3.5 | 9.6 | 0.00 | 0.00 | 0.00 | 23 | 1008.2 |